Regional Weather Roundup
Issued by NWS Goodland, KS

Home | Current Version | Previous Version | Text Only | Print | Product List | Glossary On
Versions: 1 2 3 4 5 6 7 8 9 10 11 12 13 14 15 16 17 18 19 20 21 22 23 24 25 26 27 28 29 30 31 32 33 34 35 36 37 38 39 40 41 42 43 44 45 46 47 48 49 50
000
ASUS43 KGLD 160008
RWRGLD

GOODLAND FORECAST AREA HOURLY WEATHER ROUNDUP
NATIONAL WEATHER SERVICE GOODLAND KS
500 PM MST FRI DEC 15 2017

...OFFICIAL OBSERVATIONS...

CITY           SKY/WX    TMP DP  RH WIND       PRES   REMARKS
GOODLAND KS    CLOUDY    50   2  14 SW14      29.87S
HILL CITY KS   CLEAR     47  15  27 SW8       29.87F
IMPERIAL NEB   CLOUDY    45  11  25 SW7       29.81F
MCCOOK NEB     CLOUDY    51  12  21 SW8       29.81F
AKRON CO       CLOUDY    46  12  25 SW5       29.86F
BURLINGTON CO  CLOUDY    41  10  28 SW10      29.89F
LIMON CO       CLOUDY    43   8  23 SW6       29.91F
$$

...UNOFFICIAL OBSERVATIONS...

CITY           SKY/WX    TMP DP  RH WIND       PRES   REMARKS
COLBY KS       CLOUDY    46  18  31 SW10      29.87F
LENORA KS        N/A     48  32  54 S9          N/A
NORTON KS      CLEAR     48   7  18 S8        29.83
SHARON SPRINGS   N/A     40  11  30 SW10        N/A
TRENTON NEB      N/A     52  32  46 CALM        N/A
KIT CARSON CO    N/A     46  14  27 CALM        N/A
YUMA CO        FAIR      41   9  26 SW7       29.84F
$$




USA.gov is the U.S. government's official web portal to all federal, state and local government web resources and services.